Year,Month,Day,Hour,Minute,Value (Times are PST for temperature in C)
2013,05,30,00,00,9.60
2013,05,30,00,01,9.60
2013,05,30,00,02,9.60
2013,05,30,00,03,9.60
2013,05,30,00,04,9.60
2013,05,30,00,05,9.60
2013,05,30,00,06,9.60
2013,05,30,00,07,9.60
2013,05,30,00,08,9.60
2013,05,30,00,09,9.60
2013,05,30,00,10,9.60
2013,05,30,00,11,9.60
2013,05,30,00,12,9.60
2013,05,30,00,13,9.70
2013,05,30,00,14,9.70
2013,05,30,00,15,9.70
2013,05,30,00,16,9.70
2013,05,30,00,17,9.70
2013,05,30,00,18,9.70
2013,05,30,00,19,9.70
2013,05,30,00,20,9.70
2013,05,30,00,21,9.70
2013,05,30,00,22,9.70
2013,05,30,00,23,9.70
2013,05,30,00,24,9.70
2013,05,30,00,25,9.70
2013,05,30,00,26,9.70
2013,05,30,00,27,9.70
2013,05,30,00,28,9.70
2013,05,30,00,29,9.70
2013,05,30,00,30,9.70
2013,05,30,00,31,9.70
2013,05,30,00,32,9.70
2013,05,30,00,33,9.70
2013,05,30,00,34,9.70
2013,05,30,00,35,9.70
2013,05,30,00,36,9.60
2013,05,30,00,37,9.60
2013,05,30,00,38,9.60
2013,05,30,00,39,9.60
2013,05,30,00,40,9.60
2013,05,30,00,41,9.60
2013,05,30,00,42,9.60
2013,05,30,00,43,9.60
2013,05,30,00,44,9.60
2013,05,30,00,45,9.60
2013,05,30,00,46,9.60
2013,05,30,00,47,9.60
2013,05,30,00,48,9.60
2013,05,30,00,49,9.60
2013,05,30,00,50,9.60
2013,05,30,00,51,9.60
2013,05,30,00,52,9.60
2013,05,30,00,53,9.60
2013,05,30,00,54,9.60
2013,05,30,00,55,9.60
2013,05,30,00,56,9.60
2013,05,30,00,57,9.60
2013,05,30,00,58,9.60
2013,05,30,00,59,9.60
2013,05,30,01,00,9.60
2013,05,30,01,01,9.60
2013,05,30,01,02,9.60
2013,05,30,01,03,9.50
2013,05,30,01,04,9.50
2013,05,30,01,05,9.50
2013,05,30,01,06,9.50
2013,05,30,01,07,9.50
2013,05,30,01,08,9.50
2013,05,30,01,09,9.40
2013,05,30,01,10,9.40
2013,05,30,01,11,9.40
2013,05,30,01,12,9.40
2013,05,30,01,13,9.40
2013,05,30,01,14,9.40
2013,05,30,01,15,9.40
2013,05,30,01,16,9.40
2013,05,30,01,17,9.30
2013,05,30,01,18,9.30
2013,05,30,01,19,9.30
2013,05,30,01,20,9.30
2013,05,30,01,21,9.30
2013,05,30,01,22,9.30
2013,05,30,01,23,9.20
2013,05,30,01,24,9.20
2013,05,30,01,25,9.20
2013,05,30,01,26,9.20
2013,05,30,01,27,9.20
2013,05,30,01,28,9.20
2013,05,30,01,29,9.20
2013,05,30,01,30,9.20
2013,05,30,01,31,9.20
2013,05,30,01,32,9.20
2013,05,30,01,33,9.20
2013,05,30,01,34,9.20
2013,05,30,01,35,9.20
2013,05,30,01,36,9.20
2013,05,30,01,37,9.10
2013,05,30,01,38,9.10
2013,05,30,01,39,9.10
2013,05,30,01,40,9.10
2013,05,30,01,41,9.10
2013,05,30,01,42,9.10
2013,05,30,01,43,9.10
2013,05,30,01,44,9.00
2013,05,30,01,45,9.00
2013,05,30,01,46,9.00
2013,05,30,01,47,9.00
2013,05,30,01,48,9.00
2013,05,30,01,49,9.00
2013,05,30,01,50,9.00
2013,05,30,01,51,9.00
2013,05,30,01,52,9.00
2013,05,30,01,53,9.00
2013,05,30,01,54,8.90
2013,05,30,01,55,8.90
2013,05,30,01,56,8.90
2013,05,30,01,57,8.90
2013,05,30,01,58,8.90
2013,05,30,01,59,8.90
2013,05,30,02,00,8.90
2013,05,30,02,01,8.90
2013,05,30,02,02,8.90
2013,05,30,02,03,8.90
2013,05,30,02,04,8.90
2013,05,30,02,05,8.90
2013,05,30,02,06,8.90
2013,05,30,02,07,8.90
2013,05,30,02,08,8.90
2013,05,30,02,09,8.90
2013,05,30,02,10,8.90
2013,05,30,02,11,8.90
2013,05,30,02,12,8.90
2013,05,30,02,13,8.90
2013,05,30,02,14,8.90
2013,05,30,02,15,8.80
2013,05,30,02,16,8.80
2013,05,30,02,17,8.80
2013,05,30,02,18,8.80
2013,05,30,02,19,8.80
2013,05,30,02,20,8.80
2013,05,30,02,21,8.80
2013,05,30,02,22,8.80
2013,05,30,02,23,8.80
2013,05,30,02,24,8.80
2013,05,30,02,25,8.80
2013,05,30,02,26,8.80
2013,05,30,02,27,8.80
2013,05,30,02,28,8.80
2013,05,30,02,29,8.80
2013,05,30,02,30,8.80
2013,05,30,02,31,8.70
2013,05,30,02,32,8.70
2013,05,30,02,33,8.70
2013,05,30,02,34,8.70
2013,05,30,02,35,8.70
2013,05,30,02,36,8.70
2013,05,30,02,37,8.70
2013,05,30,02,38,8.70
2013,05,30,02,39,8.70
2013,05,30,02,40,8.70
2013,05,30,02,41,8.70
2013,05,30,02,42,8.70
2013,05,30,02,43,8.70
2013,05,30,02,44,8.70
2013,05,30,02,45,8.60
2013,05,30,02,46,8.60
2013,05,30,02,47,8.60
2013,05,30,02,48,8.60
2013,05,30,02,49,8.60
2013,05,30,02,50,8.60
2013,05,30,02,51,8.60
2013,05,30,02,52,8.60
2013,05,30,02,53,8.60
2013,05,30,02,54,8.60
2013,05,30,02,55,8.60
2013,05,30,02,56,8.60
2013,05,30,02,57,8.60
2013,05,30,02,58,8.60
2013,05,30,02,59,8.60
2013,05,30,03,00,8.60
2013,05,30,03,01,8.60
2013,05,30,03,02,8.60
2013,05,30,03,03,8.60
2013,05,30,03,04,8.60
2013,05,30,03,05,8.60
2013,05,30,03,06,8.60
2013,05,30,03,07,8.60
2013,05,30,03,08,8.60
2013,05,30,03,09,8.60
2013,05,30,03,10,8.60
2013,05,30,03,11,8.60
2013,05,30,03,12,8.60
2013,05,30,03,13,8.50
2013,05,30,03,14,8.50
2013,05,30,03,15,8.50
2013,05,30,03,16,8.50
2013,05,30,03,17,8.50
2013,05,30,03,18,8.60
2013,05,30,03,19,8.60
2013,05,30,03,20,8.60
2013,05,30,03,21,8.60
2013,05,30,03,22,8.60
2013,05,30,03,23,8.60
2013,05,30,03,24,8.60
2013,05,30,03,25,8.50
2013,05,30,03,26,8.50
2013,05,30,03,27,8.50
2013,05,30,03,28,8.50
2013,05,30,03,29,8.40
2013,05,30,03,30,8.40
2013,05,30,03,31,8.40
2013,05,30,03,32,8.40
2013,05,30,03,33,8.40
2013,05,30,03,34,8.40
2013,05,30,03,35,8.40
2013,05,30,03,36,8.40
2013,05,30,03,37,8.40
2013,05,30,03,38,8.40
2013,05,30,03,39,8.40
2013,05,30,03,40,8.40
2013,05,30,03,41,8.40
2013,05,30,03,42,8.40
2013,05,30,03,43,8.40
2013,05,30,03,44,8.40
2013,05,30,03,45,8.40
2013,05,30,03,46,8.40
2013,05,30,03,47,8.40
2013,05,30,03,48,8.40
2013,05,30,03,49,8.40
2013,05,30,03,50,8.40
2013,05,30,03,51,8.40
2013,05,30,03,52,8.40
2013,05,30,03,53,8.40
2013,05,30,03,54,8.40
2013,05,30,03,55,8.40
2013,05,30,03,56,8.40
2013,05,30,03,57,8.40
2013,05,30,03,58,8.40
2013,05,30,03,59,8.40
2013,05,30,04,00,8.40
2013,05,30,04,01,8.40
2013,05,30,04,02,8.30
2013,05,30,04,03,8.30
2013,05,30,04,04,8.30
2013,05,30,04,05,8.30
2013,05,30,04,06,8.30
2013,05,30,04,07,8.30
2013,05,30,04,08,8.30
2013,05,30,04,09,8.30
2013,05,30,04,10,8.20
2013,05,30,04,11,8.20
2013,05,30,04,12,8.20
2013,05,30,04,13,8.10
2013,05,30,04,14,8.10
2013,05,30,04,15,8.10
2013,05,30,04,16,8.10
2013,05,30,04,17,8.10
2013,05,30,04,18,8.10
2013,05,30,04,19,8.10
2013,05,30,04,20,8.10
2013,05,30,04,21,8.10
2013,05,30,04,22,8.10
2013,05,30,04,23,8.10
2013,05,30,04,24,8.10
2013,05,30,04,25,8.10
2013,05,30,04,26,8.00
2013,05,30,04,27,8.00
2013,05,30,04,28,8.00
2013,05,30,04,29,8.00
2013,05,30,04,30,8.00
2013,05,30,04,31,8.00
2013,05,30,04,32,8.00
2013,05,30,04,33,7.90
2013,05,30,04,34,7.90
2013,05,30,04,35,7.90
2013,05,30,04,36,7.80
2013,05,30,04,37,7.80
2013,05,30,04,38,7.80
2013,05,30,04,39,7.80
2013,05,30,04,40,7.80
2013,05,30,04,41,7.80
2013,05,30,04,42,7.70
2013,05,30,04,43,7.70
2013,05,30,04,44,7.70
2013,05,30,04,45,7.70
2013,05,30,04,46,7.70
2013,05,30,04,47,7.70
2013,05,30,04,48,7.60
2013,05,30,04,49,7.60
2013,05,30,04,50,7.60
2013,05,30,04,51,7.60
2013,05,30,04,52,7.60
2013,05,30,04,53,7.60
2013,05,30,04,54,7.60
2013,05,30,04,55,7.60
2013,05,30,04,56,7.60
2013,05,30,04,57,7.60
2013,05,30,04,58,7.50
2013,05,30,04,59,7.50
2013,05,30,05,00,7.40
2013,05,30,05,01,7.40
2013,05,30,05,02,7.40
2013,05,30,05,03,7.40
2013,05,30,05,04,7.40
2013,05,30,05,05,7.40
2013,05,30,05,06,7.40
2013,05,30,05,07,7.40
2013,05,30,05,08,7.40
2013,05,30,05,09,7.40
2013,05,30,05,10,7.40
2013,05,30,05,11,7.40
2013,05,30,05,12,7.40
2013,05,30,05,13,7.40
2013,05,30,05,14,7.40
2013,05,30,05,15,7.40
2013,05,30,05,16,7.40
2013,05,30,05,17,7.30
2013,05,30,05,18,7.30
2013,05,30,05,19,7.20
2013,05,30,05,20,7.20
2013,05,30,05,21,7.20
2013,05,30,05,22,7.20
2013,05,30,05,23,7.20
2013,05,30,05,24,7.20
2013,05,30,05,25,7.20
2013,05,30,05,26,7.20
2013,05,30,05,27,7.20
2013,05,30,05,28,7.20
2013,05,30,05,29,7.20
2013,05,30,05,30,7.20
2013,05,30,05,31,7.20
2013,05,30,05,32,7.20
2013,05,30,05,33,7.20
2013,05,30,05,34,7.20
2013,05,30,05,35,7.20
2013,05,30,05,36,7.20
2013,05,30,05,37,7.20
2013,05,30,05,38,7.20
2013,05,30,05,39,7.20
2013,05,30,05,40,7.20
2013,05,30,05,41,7.20
2013,05,30,05,42,7.20
2013,05,30,05,43,7.20
2013,05,30,05,44,7.20
2013,05,30,05,45,7.20
2013,05,30,05,46,7.20
2013,05,30,05,47,7.20
2013,05,30,05,48,7.20
2013,05,30,05,49,7.20
2013,05,30,05,50,7.20
2013,05,30,05,51,7.20
2013,05,30,05,52,7.20
2013,05,30,05,53,7.20
2013,05,30,05,54,7.20
2013,05,30,05,55,7.20
2013,05,30,05,56,7.20
2013,05,30,05,57,7.20
2013,05,30,05,58,7.20
2013,05,30,05,59,7.20
2013,05,30,06,00,7.20
2013,05,30,06,01,7.20
2013,05,30,06,02,7.30
2013,05,30,06,03,7.30
2013,05,30,06,04,7.30
2013,05,30,06,05,7.40
2013,05,30,06,06,7.40
2013,05,30,06,07,7.50
2013,05,30,06,08,7.50
2013,05,30,06,09,7.50
2013,05,30,06,10,7.60
2013,05,30,06,11,7.60
2013,05,30,06,12,7.70
2013,05,30,06,13,7.70
2013,05,30,06,14,7.80
2013,05,30,06,15,7.80
2013,05,30,06,16,7.80
2013,05,30,06,17,7.90
2013,05,30,06,18,7.90
2013,05,30,06,19,7.90
2013,05,30,06,20,8.00
2013,05,30,06,21,8.00
2013,05,30,06,22,8.00
2013,05,30,06,23,8.10
2013,05,30,06,24,8.10
2013,05,30,06,25,8.20
2013,05,30,06,26,8.30
2013,05,30,06,27,8.30
2013,05,30,06,28,8.30
2013,05,30,06,29,8.40
2013,05,30,06,30,8.40
2013,05,30,06,31,8.40
2013,05,30,06,32,8.50
2013,05,30,06,33,8.50
2013,05,30,06,34,8.60
2013,05,30,06,35,8.60
2013,05,30,06,36,8.60
2013,05,30,06,37,8.60
2013,05,30,06,38,8.60
2013,05,30,06,39,8.60
2013,05,30,06,40,8.70
2013,05,30,06,41,8.70
2013,05,30,06,42,8.70
2013,05,30,06,43,8.70
2013,05,30,06,44,8.70
2013,05,30,06,45,8.90
2013,05,30,06,46,8.90
2013,05,30,06,47,9.00
2013,05,30,06,48,9.10
2013,05,30,06,49,9.20
2013,05,30,06,50,9.30
2013,05,30,06,51,9.30
2013,05,30,06,52,9.40
2013,05,30,06,53,9.50
2013,05,30,06,54,9.50
2013,05,30,06,55,9.60
2013,05,30,06,56,9.60
2013,05,30,06,57,9.60
2013,05,30,06,58,9.60
2013,05,30,06,59,9.70
2013,05,30,07,00,9.70
2013,05,30,07,01,9.80
2013,05,30,07,02,9.90
2013,05,30,07,03,10.00
2013,05,30,07,04,10.00
2013,05,30,07,05,10.10
2013,05,30,07,06,10.10
2013,05,30,07,07,10.10
2013,05,30,07,08,10.10
2013,05,30,07,09,10.10
2013,05,30,07,10,10.10
2013,05,30,07,11,10.10
2013,05,30,07,12,10.10
2013,05,30,07,13,10.10
2013,05,30,07,14,10.10
2013,05,30,07,15,10.10
2013,05,30,07,16,10.10
2013,05,30,07,17,10.10
2013,05,30,07,18,10.10
2013,05,30,07,19,10.10
2013,05,30,07,20,10.10
2013,05,30,07,21,10.10
2013,05,30,07,22,10.10
2013,05,30,07,23,10.10
2013,05,30,07,24,10.10
2013,05,30,07,25,10.10
2013,05,30,07,26,10.10
2013,05,30,07,27,10.10
2013,05,30,07,28,10.10
2013,05,30,07,29,10.10
2013,05,30,07,30,10.10
2013,05,30,07,31,10.10
2013,05,30,07,32,10.20
2013,05,30,07,33,10.20
2013,05,30,07,34,10.30
2013,05,30,07,35,10.30
2013,05,30,07,36,10.40
2013,05,30,07,37,10.50
2013,05,30,07,38,10.70
2013,05,30,07,39,10.80
2013,05,30,07,40,10.90
2013,05,30,07,41,11.10
2013,05,30,07,42,11.20
2013,05,30,07,43,11.20
2013,05,30,07,44,11.30
2013,05,30,07,45,11.40
2013,05,30,07,46,11.50
2013,05,30,07,47,11.60
2013,05,30,07,48,11.60
2013,05,30,07,49,11.60
2013,05,30,07,50,11.60
2013,05,30,07,51,11.60
2013,05,30,07,52,11.60
2013,05,30,07,53,11.60
2013,05,30,07,54,11.60
2013,05,30,07,55,11.60
2013,05,30,07,56,11.70
2013,05,30,07,57,11.70
2013,05,30,07,58,11.70
2013,05,30,07,59,11.70
2013,05,30,08,00,11.70
2013,05,30,08,01,11.60
2013,05,30,08,02,11.60
2013,05,30,08,03,11.50
2013,05,30,08,04,11.50
2013,05,30,08,05,11.50
2013,05,30,08,06,11.50
2013,05,30,08,07,11.40
2013,05,30,08,08,11.30
2013,05,30,08,09,11.30
2013,05,30,08,10,11.30
2013,05,30,08,11,11.20
2013,05,30,08,12,11.10
2013,05,30,08,13,11.10
2013,05,30,08,14,11.00
2013,05,30,08,15,11.00
2013,05,30,08,16,10.90
2013,05,30,08,17,10.90
2013,05,30,08,18,10.90
2013,05,30,08,19,10.80
2013,05,30,08,20,10.80
2013,05,30,08,21,10.80
2013,05,30,08,22,10.80
2013,05,30,08,23,10.80
2013,05,30,08,24,10.80
2013,05,30,08,25,10.80
2013,05,30,08,26,10.80
2013,05,30,08,27,10.90
2013,05,30,08,28,10.90
2013,05,30,08,29,10.90
2013,05,30,08,30,10.90
2013,05,30,08,31,10.90
2013,05,30,08,32,11.00
2013,05,30,08,33,11.00
2013,05,30,08,34,11.10
2013,05,30,08,35,11.10
2013,05,30,08,36,11.10
2013,05,30,08,37,11.10
2013,05,30,08,38,11.10
2013,05,30,08,39,11.10
2013,05,30,08,40,11.10
2013,05,30,08,41,11.10
2013,05,30,08,42,11.10
2013,05,30,08,43,11.10
2013,05,30,08,44,11.10
2013,05,30,08,45,11.20
2013,05,30,08,46,11.20
2013,05,30,08,47,11.20
2013,05,30,08,48,11.20
2013,05,30,08,49,11.20
2013,05,30,08,50,11.30
2013,05,30,08,51,11.30
2013,05,30,08,52,11.30
2013,05,30,08,53,11.30
2013,05,30,08,54,11.40
2013,05,30,08,55,11.40
2013,05,30,08,56,11.40
2013,05,30,08,57,11.30
2013,05,30,08,58,11.30
2013,05,30,08,59,11.30
2013,05,30,09,00,11.30
2013,05,30,09,01,11.30
2013,05,30,09,02,11.30
2013,05,30,09,03,11.30
2013,05,30,09,04,11.30
2013,05,30,09,05,11.40
2013,05,30,09,06,11.40
2013,05,30,09,07,11.40
2013,05,30,09,08,11.50
2013,05,30,09,09,11.50
2013,05,30,09,10,11.50
2013,05,30,09,11,11.40
2013,05,30,09,12,11.40
2013,05,30,09,13,11.30
2013,05,30,09,14,11.30
2013,05,30,09,15,11.30
2013,05,30,09,16,11.30
2013,05,30,09,17,11.30
2013,05,30,09,18,11.30
2013,05,30,09,19,11.30
2013,05,30,09,20,11.40
2013,05,30,09,21,11.50
2013,05,30,09,22,11.50
2013,05,30,09,23,11.60
2013,05,30,09,24,11.60
2013,05,30,09,25,11.70
2013,05,30,09,26,11.80
2013,05,30,09,27,11.80
2013,05,30,09,28,11.80
2013,05,30,09,29,11.70
2013,05,30,09,30,11.70
2013,05,30,09,31,11.70
2013,05,30,09,32,11.70
2013,05,30,09,33,11.70
2013,05,30,09,34,11.80
2013,05,30,09,35,11.80
2013,05,30,09,36,11.80
2013,05,30,09,37,11.80
2013,05,30,09,38,11.90
2013,05,30,09,39,11.90
2013,05,30,09,40,11.90
2013,05,30,09,41,11.90
2013,05,30,09,42,11.90
2013,05,30,09,43,11.90
2013,05,30,09,44,11.90
2013,05,30,09,45,11.90
2013,05,30,09,46,12.00
2013,05,30,09,47,12.00
2013,05,30,09,48,12.00
2013,05,30,09,49,12.00
2013,05,30,09,50,12.00
2013,05,30,09,51,11.90
2013,05,30,09,52,11.90
2013,05,30,09,53,11.90
2013,05,30,09,54,11.90
2013,05,30,09,55,12.00
2013,05,30,09,56,12.10
2013,05,30,09,57,12.10
2013,05,30,09,58,12.10
2013,05,30,09,59,12.10
2013,05,30,10,00,12.10
2013,05,30,10,01,12.10
2013,05,30,10,02,12.10
2013,05,30,10,03,12.10
2013,05,30,10,04,12.20
2013,05,30,10,05,12.20
2013,05,30,10,06,12.20
2013,05,30,10,07,12.20
2013,05,30,10,08,12.20
2013,05,30,10,09,12.10
2013,05,30,10,10,12.10
2013,05,30,10,11,12.10
2013,05,30,10,12,12.10
2013,05,30,10,13,12.10
2013,05,30,10,14,12.10
2013,05,30,10,15,12.10
2013,05,30,10,16,12.10
2013,05,30,10,17,12.20
2013,05,30,10,18,12.20
2013,05,30,10,19,12.30
2013,05,30,10,20,12.30
2013,05,30,10,21,12.30
2013,05,30,10,22,12.30
2013,05,30,10,23,12.30
2013,05,30,10,24,12.40
2013,05,30,10,25,12.40
2013,05,30,10,26,12.40
2013,05,30,10,27,12.40
2013,05,30,10,28,12.40
2013,05,30,10,29,12.50
2013,05,30,10,30,12.50
2013,05,30,10,31,12.60
2013,05,30,10,32,12.60
2013,05,30,10,33,12.60
2013,05,30,10,34,12.60
2013,05,30,10,35,12.60
2013,05,30,10,36,12.60
2013,05,30,10,37,12.60
2013,05,30,10,38,12.60
2013,05,30,10,39,12.70
2013,05,30,10,40,12.70
2013,05,30,10,41,12.80
2013,05,30,10,42,12.80
2013,05,30,10,43,12.80
2013,05,30,10,44,12.90
2013,05,30,10,45,12.90
2013,05,30,10,46,12.90
2013,05,30,10,47,12.90
2013,05,30,10,48,12.90
2013,05,30,10,49,13.00
2013,05,30,10,50,13.10
2013,05,30,10,51,13.10
2013,05,30,10,52,13.20
2013,05,30,10,53,13.20
2013,05,30,10,54,13.20
2013,05,30,10,55,13.10
2013,05,30,10,56,13.10
2013,05,30,10,57,13.10
2013,05,30,10,58,13.20
2013,05,30,10,59,13.20
2013,05,30,11,00,13.20
2013,05,30,11,01,13.20
2013,05,30,11,02,13.10
2013,05,30,11,03,13.10
2013,05,30,11,04,13.10
2013,05,30,11,05,13.10
2013,05,30,11,06,13.10
2013,05,30,11,07,13.10
2013,05,30,11,08,13.20
2013,05,30,11,09,13.10
2013,05,30,11,10,13.20
2013,05,30,11,11,13.20
2013,05,30,11,12,13.20
2013,05,30,11,13,13.20
2013,05,30,11,14,13.20
2013,05,30,11,15,13.20
2013,05,30,11,16,13.20
2013,05,30,11,17,13.20
2013,05,30,11,18,13.20
2013,05,30,11,19,13.20
2013,05,30,11,20,13.20
2013,05,30,11,21,13.20
2013,05,30,11,22,13.20
2013,05,30,11,23,13.20
2013,05,30,11,24,13.10
2013,05,30,11,25,13.20
2013,05,30,11,26,13.20
2013,05,30,11,27,13.20
2013,05,30,11,28,13.20
2013,05,30,11,29,13.30
2013,05,30,11,30,13.30
2013,05,30,11,31,13.30
2013,05,30,11,32,13.30
2013,05,30,11,33,13.40
2013,05,30,11,34,13.40
2013,05,30,11,35,13.40
2013,05,30,11,36,13.30
2013,05,30,11,37,13.40
2013,05,30,11,38,13.40
2013,05,30,11,39,13.40
2013,05,30,11,40,13.40
2013,05,30,11,41,13.40
2013,05,30,11,42,13.40
2013,05,30,11,43,13.50
2013,05,30,11,44,13.50
2013,05,30,11,45,13.60
2013,05,30,11,46,13.60
2013,05,30,11,47,13.60
2013,05,30,11,48,13.60
2013,05,30,11,49,13.70
2013,05,30,11,50,13.70
2013,05,30,11,51,13.70
2013,05,30,11,52,13.70
2013,05,30,11,53,13.70
2013,05,30,11,54,13.70
2013,05,30,11,55,13.70
2013,05,30,11,56,13.70
2013,05,30,11,57,13.70
2013,05,30,11,58,13.70
2013,05,30,11,59,13.70
2013,05,30,12,00,13.70
2013,05,30,12,01,13.70
2013,05,30,12,02,13.70
2013,05,30,12,03,13.60
2013,05,30,12,04,13.60
2013,05,30,12,05,13.60
2013,05,30,12,06,13.60
2013,05,30,12,07,13.50
2013,05,30,12,08,13.40
2013,05,30,12,09,13.40
2013,05,30,12,10,13.30
2013,05,30,12,11,13.30
2013,05,30,12,12,13.30
2013,05,30,12,13,13.30
2013,05,30,12,14,13.30
2013,05,30,12,15,13.30
2013,05,30,12,16,13.30
2013,05,30,12,17,13.30
2013,05,30,12,18,13.20
2013,05,30,12,19,13.20
2013,05,30,12,20,13.20
2013,05,30,12,21,13.20
2013,05,30,12,22,13.10
2013,05,30,12,23,13.00
2013,05,30,12,24,13.00
2013,05,30,12,25,13.00
2013,05,30,12,26,12.90
2013,05,30,12,27,12.90
2013,05,30,12,28,12.80
2013,05,30,12,29,12.80
2013,05,30,12,30,12.80
2013,05,30,12,31,12.80
2013,05,30,12,32,12.70
2013,05,30,12,33,12.70
2013,05,30,12,34,12.70
2013,05,30,12,35,12.70
2013,05,30,12,36,12.60
2013,05,30,12,37,12.60
2013,05,30,12,38,12.50
2013,05,30,12,39,12.50
2013,05,30,12,40,12.50
2013,05,30,12,41,12.50
2013,05,30,12,42,12.60
2013,05,30,12,43,12.50
2013,05,30,12,44,12.50
2013,05,30,12,45,12.50
2013,05,30,12,46,12.50
2013,05,30,12,47,12.50
2013,05,30,12,48,12.50
2013,05,30,12,49,12.50
2013,05,30,12,50,12.50
2013,05,30,12,51,12.40
2013,05,30,12,52,12.40
2013,05,30,12,53,12.40
2013,05,30,12,54,12.40
2013,05,30,12,55,12.50
2013,05,30,12,56,12.50
2013,05,30,12,57,12.50
2013,05,30,12,58,12.40
2013,05,30,12,59,12.40
2013,05,30,13,00,12.30
2013,05,30,13,01,12.30
2013,05,30,13,02,12.30
2013,05,30,13,03,12.30
2013,05,30,13,04,12.30
2013,05,30,13,05,12.30
2013,05,30,13,06,12.30
2013,05,30,13,07,12.30
2013,05,30,13,08,12.30
2013,05,30,13,09,12.30
2013,05,30,13,10,12.40
2013,05,30,13,11,12.40
2013,05,30,13,12,12.40
2013,05,30,13,13,12.40
2013,05,30,13,14,12.40
2013,05,30,13,15,12.40
2013,05,30,13,16,12.40
2013,05,30,13,17,12.40
2013,05,30,13,18,12.30
2013,05,30,13,19,12.30
2013,05,30,13,20,12.20
2013,05,30,13,21,12.20
2013,05,30,13,22,12.10
2013,05,30,13,23,12.10
2013,05,30,13,24,12.10
2013,05,30,13,25,12.00
2013,05,30,13,26,11.90
2013,05,30,13,27,11.90
2013,05,30,13,28,11.80
2013,05,30,13,29,11.80
2013,05,30,13,30,11.70
2013,05,30,13,31,11.70
2013,05,30,13,32,11.70
2013,05,30,13,33,11.60
2013,05,30,13,34,11.50
2013,05,30,13,35,11.50
2013,05,30,13,36,11.40
2013,05,30,13,37,11.40
2013,05,30,13,38,11.40
2013,05,30,13,39,11.40
2013,05,30,13,40,11.40
2013,05,30,13,41,11.40
2013,05,30,13,42,11.40
2013,05,30,13,43,11.40
2013,05,30,13,44,11.40
2013,05,30,13,45,11.40
2013,05,30,13,46,11.40
2013,05,30,13,47,11.50
2013,05,30,13,48,11.50
2013,05,30,13,49,11.50
2013,05,30,13,50,11.50
2013,05,30,13,51,11.50
2013,05,30,13,52,11.60
2013,05,30,13,53,11.60
2013,05,30,13,54,11.60
2013,05,30,13,55,11.60
2013,05,30,13,56,11.60
2013,05,30,13,57,11.70
2013,05,30,13,58,11.70
2013,05,30,13,59,11.70
2013,05,30,14,00,11.70
2013,05,30,14,01,11.60
2013,05,30,14,02,11.60
2013,05,30,14,03,11.60
2013,05,30,14,04,11.60
2013,05,30,14,05,11.60
2013,05,30,14,06,11.60
2013,05,30,14,07,11.60
2013,05,30,14,08,11.60
2013,05,30,14,09,11.60
2013,05,30,14,10,11.70
2013,05,30,14,11,11.70
2013,05,30,14,12,11.70
2013,05,30,14,13,11.70
2013,05,30,14,14,11.70
2013,05,30,14,15,11.70
2013,05,30,14,16,11.70
2013,05,30,14,17,11.70
2013,05,30,14,18,11.70
2013,05,30,14,19,11.70
2013,05,30,14,20,11.70
2013,05,30,14,21,11.70
2013,05,30,14,22,11.70
2013,05,30,14,23,11.80
2013,05,30,14,24,11.80
2013,05,30,14,25,11.80
2013,05,30,14,26,11.80
2013,05,30,14,27,11.80
2013,05,30,14,28,11.80
2013,05,30,14,29,11.90
2013,05,30,14,30,12.00
2013,05,30,14,31,12.10
2013,05,30,14,32,12.10
2013,05,30,14,33,12.20
2013,05,30,14,34,12.20
2013,05,30,14,35,12.20
2013,05,30,14,36,12.30
2013,05,30,14,37,12.50
2013,05,30,14,38,12.60
2013,05,30,14,39,12.70
2013,05,30,14,40,12.70
2013,05,30,14,41,12.80
2013,05,30,14,42,12.80
2013,05,30,14,43,12.80
2013,05,30,14,44,12.90
2013,05,30,14,45,12.90
2013,05,30,14,46,12.80
2013,05,30,14,47,12.80
2013,05,30,14,48,12.80
2013,05,30,14,49,12.80
2013,05,30,14,50,12.80
2013,05,30,14,51,12.80
2013,05,30,14,52,12.70
2013,05,30,14,53,12.70
2013,05,30,14,54,12.80
2013,05,30,14,55,12.90
2013,05,30,14,56,12.90
2013,05,30,14,57,13.00
2013,05,30,14,58,13.00
2013,05,30,14,59,13.00
2013,05,30,15,00,13.00
2013,05,30,15,01,13.00
2013,05,30,15,02,13.00
2013,05,30,15,03,13.00
2013,05,30,15,04,12.90
2013,05,30,15,05,12.80
2013,05,30,15,06,12.70
2013,05,30,15,07,12.60
2013,05,30,15,08,12.50
2013,05,30,15,09,12.40
2013,05,30,15,10,12.30
2013,05,30,15,11,12.20
2013,05,30,15,12,12.20
2013,05,30,15,13,12.10
2013,05,30,15,14,12.10
2013,05,30,15,15,12.10
2013,05,30,15,16,12.00
2013,05,30,15,17,11.90
2013,05,30,15,18,11.90
2013,05,30,15,19,11.80
2013,05,30,15,20,11.80
2013,05,30,15,21,11.80
2013,05,30,15,22,11.70
2013,05,30,15,23,11.70
2013,05,30,15,24,11.70
2013,05,30,15,25,11.70
2013,05,30,15,26,11.70
2013,05,30,15,27,11.70
2013,05,30,15,28,11.70
2013,05,30,15,29,11.70
2013,05,30,15,30,11.80
2013,05,30,15,31,11.80
2013,05,30,15,32,11.80
2013,05,30,15,33,11.80
2013,05,30,15,34,11.80
2013,05,30,15,35,11.80
2013,05,30,15,36,11.80
2013,05,30,15,37,11.80
2013,05,30,15,38,11.70
2013,05,30,15,39,11.70
2013,05,30,15,40,11.60
2013,05,30,15,41,11.60
2013,05,30,15,42,11.60
2013,05,30,15,43,11.60
2013,05,30,15,44,11.60
2013,05,30,15,45,11.60
2013,05,30,15,46,11.60
2013,05,30,15,47,11.60
2013,05,30,15,48,11.60
2013,05,30,15,49,11.50
2013,05,30,15,50,11.50
2013,05,30,15,51,11.40
2013,05,30,15,52,11.40
2013,05,30,15,53,11.40
2013,05,30,15,54,11.40
2013,05,30,15,55,11.30
2013,05,30,15,56,11.30
2013,05,30,15,57,11.20
2013,05,30,15,58,11.20
2013,05,30,15,59,11.20
2013,05,30,16,00,11.20
2013,05,30,16,01,11.20
2013,05,30,16,02,11.20
2013,05,30,16,03,11.20
2013,05,30,16,04,11.20
2013,05,30,16,05,11.20
2013,05,30,16,06,11.20
2013,05,30,16,07,11.20
2013,05,30,16,08,11.20
2013,05,30,16,09,11.20
2013,05,30,16,10,11.20
2013,05,30,16,11,11.20
2013,05,30,16,12,11.20
2013,05,30,16,13,11.20
2013,05,30,16,14,11.20
2013,05,30,16,15,11.30
2013,05,30,16,16,11.20
2013,05,30,16,17,11.30
2013,05,30,16,18,11.30
2013,05,30,16,19,11.30
2013,05,30,16,20,11.30
2013,05,30,16,21,11.40
2013,05,30,16,22,11.40
2013,05,30,16,23,11.40
2013,05,30,16,24,11.40
2013,05,30,16,25,11.50
2013,05,30,16,26,11.50
2013,05,30,16,27,11.50
2013,05,30,16,28,11.50
2013,05,30,16,29,11.50
2013,05,30,16,30,11.50
2013,05,30,16,31,11.50
2013,05,30,16,32,11.50
2013,05,30,16,33,11.50
2013,05,30,16,34,11.50
2013,05,30,16,35,11.60
2013,05,30,16,36,11.60
2013,05,30,16,37,11.70
2013,05,30,16,38,11.70
2013,05,30,16,39,11.70
2013,05,30,16,40,11.70
2013,05,30,16,41,11.70
2013,05,30,16,42,11.70
2013,05,30,16,43,11.70
2013,05,30,16,44,11.70
2013,05,30,16,45,11.70
2013,05,30,16,46,11.70
2013,05,30,16,47,11.70
2013,05,30,16,48,11.80
2013,05,30,16,49,11.80
2013,05,30,16,50,11.80
2013,05,30,16,51,11.80
2013,05,30,16,52,11.80
2013,05,30,16,53,11.80
2013,05,30,16,54,11.80
2013,05,30,16,55,11.80
2013,05,30,16,56,11.80
2013,05,30,16,57,11.80
2013,05,30,16,58,11.80
2013,05,30,16,59,11.80
2013,05,30,17,00,11.80
2013,05,30,17,01,11.80
2013,05,30,17,02,11.80
2013,05,30,17,03,11.90
2013,05,30,17,04,11.90
2013,05,30,17,05,11.90
2013,05,30,17,06,11.90
2013,05,30,17,07,11.90
2013,05,30,17,08,11.90
2013,05,30,17,09,11.90
2013,05,30,17,10,11.90
2013,05,30,17,11,11.90
2013,05,30,17,12,11.90
2013,05,30,17,13,11.90
2013,05,30,17,14,11.90
2013,05,30,17,15,11.90
2013,05,30,17,16,11.90
2013,05,30,17,17,11.90
2013,05,30,17,18,11.90
2013,05,30,17,19,11.90
2013,05,30,17,20,11.90
2013,05,30,17,21,11.90
2013,05,30,17,22,11.90
2013,05,30,17,23,11.90
2013,05,30,17,24,11.90
2013,05,30,17,25,12.00
2013,05,30,17,26,12.00
2013,05,30,17,27,12.10
2013,05,30,17,28,12.00
2013,05,30,17,29,12.10
2013,05,30,17,30,12.10
2013,05,30,17,31,12.10
2013,05,30,17,32,12.10
2013,05,30,17,33,12.10
2013,05,30,17,34,12.10
2013,05,30,17,35,12.10
2013,05,30,17,36,12.20
2013,05,30,17,37,12.20